Weather Roundup
Issued by NWS

Home | Current Version | Previous Version | Text Only | Print | Product List | Glossary On
Versions: 1 2 3 4 5 6 7 8 9 10 11 12 13 14 15 16 17 18 19 20 21 22 23 24 25 26 27 28 29 30 31 32 33 34 35 36 37 38 39 40 41 42 43 44 45 46 47 48 49 50
016
NZUS93 KARX 261159
HRRWXR

CURRENT HOURLY OBSERVATIONS ACROSS
MUCH OF THE UPPER MISSISSIPPI VALLEY
NATIONAL WEATHER SERVICE LA CROSSE WI
700 AM CDT SUN MAR 26 2017


...SOUTHEAST MINNESOTA...


CITY           SKY/WX    TMP DP  RH WIND       PRES   REMARKS
ROCHESTER      CLOUDY    34  34 100 NE8       29.89S FOG     WCI  27
ROCHESTER/MAYO CLOUDY    35  35 100 NE6       29.90S WCI  30
WINONA         DRIZZLE   36  36 100 CALM      29.93S
AUSTIN         CLOUDY    36  34  93 NE6       29.88S WCI  31
ALBERT LEA     DRZL/FOG  34  34 100 NE8       29.89S VSB 1/2 WCI  27
DODGE CENTER   FOG       34  34 100 NE6       29.90R VSB 1/2 WCI  29
PRESTON        CLOUDY    34  33  97 NE6       29.88F FOG     WCI  29
OWATONNA       FOG       36  34  93 NE7       29.91S VSB 1   WCI  30
FARIBAULT      CLOUDY    36  34  93 NE6       29.92S FOG     WCI  31
$$

...ELSEWHERE IN MINNESOTA...


CITY           SKY/WX    TMP DP  RH WIND       PRES   REMARKS
MINNEAPOLIS    CLOUDY    36  33  89 E7        29.95R WCI  30
INTNL FALLS    CLOUDY    31  28  89 CALM      30.01S
DULUTH         FRZ DRZL  32  31  96 E8        29.98S WCI  25
RED WING       CLOUDY    36  36 100 E5        29.93R FOG     WCI  32
REDWOOD FALLS  LGT RAIN  37  35  92 N3        29.94R FOG
MANKATO        MIX PCPN  36  35  96 NE5       29.94R FOG     WCI  32
WORTHINGTON    NOT AVBL
FAIRMONT       MIX PCPN  36  35  96 N7        29.92S FOG     WCI  30
$$

...SOUTHWEST WISCONSIN...


CITY           SKY/WX    TMP DP  RH WIND       PRES   REMARKS
LA CROSSE      CLOUDY    37  36  96 N5        29.91S FOG     WCI  33
PRAIRIE DU CHI CLOUDY    39  38  97 CALM      29.87S
BOSCOBEL       CLOUDY    40  39  97 NE6       29.88S
LONE ROCK      NOT AVBL
PLATTEVILLE    CLOUDY    41  41 100 NE10      29.84S VSB 3/4
FORT MC COY    LGT RAIN  35  35 100 NE5       29.92S WCI  31
MAUSTON-NEW LI CLOUDY    37  36  97 CALM      29.91S FOG
VIROQUA        CLOUDY    36  36 100 NE9       29.87F WCI  29
WIS DELLS      CLOUDY    37  36  97 NE6       29.90S FOG     WCI  32
$$

...ELSEWHERE IN WISCONSIN...


CITY           SKY/WX    TMP DP  RH WIND       PRES   REMARKS
MILWAUKEE      LGT RAIN  39  37  92 NE12      29.91S VSB 1/2 WCI  32
MADISON        DRZL/FOG  40  40 100 NE8       29.88S VSB 1/4 WCI  34
GREEN BAY      MIX PCPN  35  35 100 NE10      29.97S VSB 1   WCI  27
EAU CLAIRE     NOT AVBL
BLACK RVR FLS  CLOUDY    35  35 100 NE3       29.93S
MEDFORD        MIX PCPN  32  31  96 E6        29.93S WCI  26
WAUSAU         MIX PCPN  32  32 100 E6        29.93S WCI  26
WIS RAPIDS     LGT RAIN  34  34 100 E8        29.94S FOG     WCI  27
MARSHFIELD     CLOUDY    33  31  92 E9        29.91S FOG     WCI  25
RICE LAKE      CLOUDY    34  34  99 CALM      29.97S FOG
$$

...NORTHEAST IOWA...


CITY           SKY/WX    TMP DP  RH WIND       PRES   REMARKS
WATERLOO       CLOUDY    39  38  96 NE8       29.85R FOG     WCI  33
DUBUQUE        FOG       41  41 100 NE9       29.83R VSB 1/4
DECORAH        LGT RAIN  36  36 100 VRB6      29.86S WCI  31
MASON CITY     CLOUDY    36  36 100 N8        29.89R WCI  30
CHARLES CITY   CLOUDY    37  37 100 NE12      29.86S WCI  30
OELWEIN        FOG       39  39 100 NE12      29.84S VSB 1   WCI  32
$$

...ELSEWHERE IN IOWA...


CITY           SKY/WX    TMP DP  RH WIND       PRES   REMARKS
DES MOINES     FOG       41  40  96 N7        29.85S VSB 3/4
IOWA CITY      FOG       46  45  96 N7        29.82S VSB 3/4
FORT DODGE     CLOUDY    37  34  87 N6        29.89R WCI  33
MARSHALLTOWN   LGT RAIN  39  39 100 NE8       29.84R FOG     WCI  33
CEDAR RAPIDS   CLOUDY    42  42 100 N6        29.81R FOG
$$

...NORTHERN ILLINOIS...


CITY           SKY/WX    TMP DP  RH WIND       PRES   REMARKS
CHICAGO-OHARE  CLOUDY    48  46  93 NE6       29.85S FOG
CHICAGO-MIDWAY LGT RAIN  52  52 100 SE10      29.86S FOG
MOLINE         FOG       50  48  93 E6        29.80R VSB 1/4
ROCKFORD       FOG       47  45  93 NE8       29.86S VSB 1/2
PEORIA         CLOUDY    53  51  93 S14       29.82S
$$

NOTE: "FAIR" INDICATES FEW OR NO CLOUDS BELOW 12,000 FEET WITH NO
SIGNIFICANT WEATHER AND/OR OBSTRUCTIONS TO VISIBILITY. WIND
SPEEDS ARE IN MILES-PER-HOUR.




USA.gov is the U.S. government's official web portal to all federal, state and local government web resources and services.